Regional Weather Roundup
Issued by NWS Upton, NY

Current Version | Previous Version | Graphics & Text | Print | Product List | Glossary Off
Versions: 1 2 3 4 5 6 7 8 9 10 11 12 13 14 15 16 17 18 19 20 21 22 23 24 25 26 27 28 29 30 31 32 33 34 35 36 37 38 39 40 41 42 43 44 45 46 47 48 49 50

000
ASUS41 KOKX 030418
RWROKX

REGIONAL WEATHER ROUNDUP
NATIONAL WEATHER SERVICE NEW YORK NY
1200 AM EDT FRI JUL 03 2015

NOTE: "FAIR" INDICATES FEW OR NO CLOUDS BELOW 12,000 FEET WITH NO
SIGNIFICANT WEATHER AND/OR OBSTRUCTIONS TO VISIBILITY.

NYZ071-072-176-178-NJZ106-104-030500-
NEW YORK CITY METRO AREA


CITY           SKY/WX    TMP DP  RH WIND       PRES   REMARKS
CENTRAL PARK   CLOUDY    72  61  68 W5        29.91R
LAGUARDIA APRT CLOUDY    73  60  63 SW3       29.87S
KENNEDY INTL   CLOUDY    70  64  81 W7        29.89R
NEWARK/LIBERTY MOCLDY    70  64  81 SW7       29.88S
BRNX BOT. GARD   N/A     72  59  64 E1        29.89F
TETERBORO      CLOUDY    71  61  70 CALM      29.87S
$$

NYZ177-179-078>081-030500-
LONG ISLAND NEW YORK

CITY           SKY/WX    TMP DP  RH WIND       PRES   REMARKS
FARMINGDALE    CLOUDY    69  65  86 SW5       29.88R
ISLIP          CLOUDY    68  64  87 CALM      29.86F
SHIRLEY        CLOUDY    67  64  90 S5        29.88S
WESTHAMPTON    LGT RAIN  65  65 100 CALM      29.89F FOG
MONTAUK POINT    N/A     68  63  84 CALM      29.89S
$$

NYZ052-065-067-030500-
HUDSON VALLEY

CITY           SKY/WX    TMP DP  RH WIND       PRES   REMARKS
WHITE PLAINS   CLOUDY    68  64  87 NW3       29.89R
NEWBURGH       MOCLDY    68  61  77 E12       29.92R
MONTGOMERY     MOCLDY    64  61  90 N5        29.91R
POUGHKEEPSIE   MOCLDY    67  58  72 CALM      29.90R
ALBANY         PTCLDY    62  46  55 CALM      29.93R
$$

NJZ001-105-106-008-010-013-015-019>022-104-030500-
NEW JERSEY

CITY           SKY/WX    TMP DP  RH WIND       PRES   REMARKS
NEWARK/LIBERTY MOCLDY    70  64  81 SW7       29.88S
TETERBORO      CLOUDY    71  61  70 CALM      29.87S
CALDWELL       MOCLDY    68  61  78 CALM      29.89S
MORRISTOWN     PTCLDY    64  61  88 CALM      29.89S
SOMERVILLE     CLOUDY    66  63  90 CALM      29.87S
SUSSEX         PTCLDY    62  59  90 CALM      29.92R
ANDOVER          N/A     62  61  96 CALM      29.92R
TRENTON        CLOUDY    67  64  90 CALM      29.89S
MILLVILLE      FOG       64  63  96 CALM      29.90R VSB 1/2
ATLANTIC CITY  PTCLDY    66  64  93 CALM      29.89F FOG
WRIGHTSTOWN    PTCLDY    66  64  94 NW2       29.88R
TOMS RIVER     MOCLDY    64  63  94 CALM      29.90R
BELMAR         CLOUDY    66  61  82 NW3       29.90R
$$

PAZ047>061-062-071-030500-
EASTERN PENNSYLVANIA

CITY           SKY/WX    TMP DP  RH WIND       PRES   REMARKS
PHILADELPHIA   MOCLDY    71  64  78 NW5       29.90S
ALLENTOWN      PTCLDY    66  62  87 NW3       29.90S
SCRANTON       PTCLDY    64  57  78 NE7       29.95R
$$

CTZ002-004>006-009-010-012-RIZ004-006-007-MAZ004-011-015-030500-
SOUTHERN NEW ENGLAND
 IN CT

CITY           SKY/WX    TMP DP  RH WIND       PRES   REMARKS
BRADLEY INTL   CLOUDY    67  56  67 N7        29.88S
HARTFORD       CLOUDY    69  59  70 VRB6      29.88S
DANBURY        CLOUDY    64  59  83 SW3       29.91R
WTRBRY/OXFORD  CLOUDY    66  55  68 NE6       29.92R
BRIDGEPORT     CLOUDY    72  62  71 N5        29.87S
MERIDEN        CLOUDY    68  62  81 CALM      29.89R
NEW HAVEN      CLOUDY    68  64  87 CALM      29.88S
CHESTER        FAIR      66  59  77 CALM      29.90R
GROTON         CLOUDY    68  63  84 CALM      29.87S
WILLIMANTIC    CLOUDY    66  63  90 CALM      29.89R

 IN RI

CITY           SKY/WX    TMP DP  RH WIND       PRES   REMARKS
PROVIDENCE     CLOUDY    71  63  75 CALM      29.86F
BLOCK ISLAND   CLOUDY    66  61  82 SW3       29.87S
WESTERLY       CLOUDY    67  61  81 CALM      29.88S

 IN MA

CITY           SKY/WX    TMP DP  RH WIND       PRES   REMARKS
BOSTON         CLOUDY    72  57  59 W8        29.86F
WORCESTER      CLOUDY    66  53  63 NW9       29.90F
WESTFIELD      CLOUDY    62  57  83 E3        29.89S
PROVINCETOWN   CLOUDY    66   9  10 CALM      29.86S
NANTUCKET      RAIN      67  65  93 N3        29.86S FOG
$$

ANZ330-335-338-340-345-350-353-355-030500-
COASTAL MARINE OBSERVATIONS


STATION/POSITION TIME  SKY/WX   TEMP    WIND        PRES    VSBY  WAVE
                                AIR SEA DIR/SP/G                  HT/PER
                 (UTC)          (F)     (DEG/KT/KT) (MB)    (MI)  (FT/S)
NY HARB ENTRANCE 0350            69 70  260/  4/  4 1011.6          3/ 8
4S FIRE IS       0303               69                N/A           3/ 8
20S FIRE ISLAND  0350            66 67  330/  8/ 10 1011.5          3/ 8
GREAT SOUTH BAY  0300            70 75  290/  8/  8   N/A
23SW MTP         0350            66 67  320/  4/  4 1011.1          3/ 8
HUDSON CANYON    NOT AVBL
KINGS POINT      0300            71 66  190/  1/  2 1010.8
CENTRAL LI SOUND NOT AVBL
EASTERN LI SOUND 0300            66 64   50/  2/  4   N/A
ROBBINS REEF     0300            70     240/  7/  8 1010.8
$$


>>>>>>>>>>>>>>>>>>>>>>>>>>>> KEY <<<<<<<<<<<<<<<<<<<<<<<<<<<
>                                                          <
>     SKY/WX - SKY CONDITION/PRESENT WEATHER               <
>     TMP    - TEMPERATURE IN FAHRENHEIT                   <
>     DP     - DEWPOINT IN FAHRENHEIT                      <
>     RH     - RELATIVE HUMIDITY IN PERCENT                <
>     WIND   - DIRECTION AND SPEED IN MPH                  <
>     PRES   - MEAN SEA LEVEL PRESSURE IN INCHES OF HG     <
>     WCI    - WIND CHILL INDEX                            <
>     VSB    - VISIBILITY IN MILES                         <
>     HX     - HEAT INDEX                                  <
>     TC     - TEMPERATURE IN CELSIUS                      <
>     VRB    - VARIABLE WIND DIRECTION                     <
>                                                          <
>>>>>>>>>>>>>>>>>>>>>>>>>>>> KEY <<<<<<<<<<<<<<<<<<<<<<<<<<<




USA.gov is the U.S. government's official web portal to all federal, state and local government web resources and services.